MOZHAETS 4 (RS-22)

Last updated on Mon Nov 03 2025 00:03:21 GMT+0000 (Coordinated Universal Time)

1 27939U 03042A 25306.56660145 .00001631 00000+0 26337-3 0 9992 2 27939 98.3371 119.7036 0010258 267.4366 185.0400 14.72791206182187
UTC large
Height (km)
Speed (km/s)
/
Latitude / Longitude
Inclination (degrees)
Orbital Period (minutes)
Azimuth
Elevation
Range (km)
Doppler Factor

Next 0 passes for location: London (51.5072 / 0.1276)

Sorry there are no passes over London.